[[{"header":{"parameterUnit":"m.s-1","parameterCategory":1,"la1":30.2992,"la2":30.254,"lo1":-89.0895,"lo2":-89.0443,"dy":0.0025,"dx":0.0025,"nx":19,"ny":19,"refTime":"2026-05-13T09:00:00:Z","depth":0,"parameterNumber":2,"parameterNumberName":"U-component_of_WINDS"},"data":[0,0,0,-2.1036,-2.1037,-2.1102,-2.1103,-2.12,-2.1201,0,0,0,0,0,0,0,0,0,0,0,-2.1024,-2.1025,-2.1036,-2.1037,-2.1102,-2.1103,-2.12,-2.1201,0,0,0,0,0,0,0,0,0,0,0,-2.1024,-2.1025,-2.1026,-2.1038,-2.1102,-2.1103,-2.12,-2.1146,0,0,0,0,0,0,0,0,0,0,-2.108,-2.1077,-2.1025,-2.1026,-2.1038,-2.1102,-2.1103,-2.1143,-2.1149,-2.1176,0,-2.1202,0,-2.1203,-2.1208,-2.1209,0,0,0,-2.1032,-2.1072,-2.1082,-2.1026,-2.1039,-2.1102,-2.1071,-2.1146,-2.1153,-2.1185,-2.1204,-2.1207,-2.1205,-2.1209,-2.121,-2.1383,-2.1384,0,0,-2.1028,-2.1041,-2.1078,-2.1087,-2.1078,-2.1069,-2.1074,-2.115,-2.1172,-2.1204,-2.1209,-2.1206,-2.121,-2.1211,-2.1382,-2.1383,0,0,0,-2.1022,-2.1039,-2.1046,-2.1084,-2.1094,-2.1071,-2.1076,-2.1169,-2.117,-2.121,-2.1207,-2.121,-2.1212,-2.1381,-2.1382,-2.1446,0,0,0,-2.1019,-2.1035,-2.1045,-2.1054,-2.1093,-2.1132,-2.1093,-2.1165,-2.1173,-2.1207,-2.121,-2.1213,-2.138,-2.1382,-2.1442,-2.1475,0,0,0,-2.1018,-2.1034,-2.1047,-2.1054,-2.1083,-2.1131,-2.1136,-2.1166,-2.1172,-2.1209,-2.1213,-2.1379,-2.1381,-2.1438,-2.1468,-2.1522,0,0,0,-2.102,-2.1105,-2.1048,-2.1142,-2.1082,-2.117,-2.1136,-2.1201,-2.124,-2.1211,-2.138,-2.1382,-2.1437,-2.1464,-2.1518,-2.1569,-2.1591,0,0,-2.1134,-2.1119,-2.1173,-2.1124,-2.1224,-2.1159,-2.1269,-2.1294,-2.1287,-2.1351,-2.1356,-2.1443,-2.1468,-2.1521,-2.1716,-2.1734,0,0,0,-2.1213,-2.1252,-2.1276,-2.1313,-2.1333,-2.1352,-2.1359,-2.1367,-2.1421,-2.1322,-2.1478,-2.1492,-2.1523,-2.1546,-2.1562,-2.1586,-2.1394,-2.1394,-2.1394,-2.1393,-2.1377,-2.1465,-2.1457,-2.1493,-2.1497,-2.1525,-2.1538,-2.1514,-2.1551,-2.1569,-2.1689,-2.1718,-2.1729,-2.1755,-2.1596,-2.1596,-2.1597,-2.1597,-2.1557,-2.1609,-2.1572,-2.1643,-2.1626,-2.1686,-2.1693,-2.1673,-2.1726,-2.1675,-2.1701,-2.1645,-2.1749,-2.1771,-2.1601,-2.1601,-2.16,-2.16,-2.1599,-2.1672,-2.1694,-2.1702,-2.1752,-2.1793,-2.1782,-2.1834,-2.1817,-2.1802,-2.1828,-2.1845,-2.1844,-2.1839,-2.1838,-2.1838,-2.1838,-2.1839,-2.1839,-2.1839,-2.1787,-2.1794,-2.1839,-2.1866,-2.1886,-2.1911,-2.1915,-2.1935,-2.1952,-2.1936,-2.1936,-2.1906,-2.1763,-2.1726,-2.1846,-2.1845,-2.1844,-2.1843,-2.1843,-2.1957,-2.1915,-2.1985,-2.2005,-2.2034,-2.2074,-2.2052,-2.2093,-2.2107,-2.2133,-2.2097,-2.1994,-2.1978,-2.1965,-2.1935,-2.2101,-2.2101,-2.2101,-2.2101,-2.2052,-2.2042,-2.2108,-2.2141,-2.2171,-2.2157,-2.2236,-2.2239,-2.2237,-2.2244,-2.2218,-2.2176,-2.2164,-2.2155,-2.2139,-2.211,-2.2317,-2.2317,-2.2317,-2.2154,-2.2146,-2.2216,-2.2211,-2.2232,-2.225,-2.2322,-2.2361,-2.235,-2.2326,-2.2249,-2.224,-2.2172,-2.2152,-2.2125,-2.21,-2.2046,0,0]},{"header":{"parameterUnit":"m.s-1","parameterCategory":1,"la1":30.2992,"la2":30.254,"lo1":-89.0895,"lo2":-89.0443,"dy":0.0025,"dx":0.0025,"nx":19,"ny":19,"refTime":"2026-05-13T09:00:00:Z","depth":0,"parameterNumber":3,"parameterNumberName":"V-component_of_WINDS"},"data":[0,0,0,-1.6613,-1.6614,-1.667,-1.6671,-1.6733,-1.6733,0,0,0,0,0,0,0,0,0,0,0,-1.6592,-1.6593,-1.6613,-1.6614,-1.667,-1.6671,-1.6732,-1.6733,0,0,0,0,0,0,0,0,0,0,0,-1.6592,-1.6592,-1.6593,-1.6614,-1.667,-1.6671,-1.6732,-1.6693,0,0,0,0,0,0,0,0,0,0,-1.664,-1.6617,-1.6592,-1.6593,-1.6615,-1.667,-1.6671,-1.6691,-1.6695,-1.6703,0,-1.6711,0,-1.6723,-1.6737,-1.6737,0,0,0,-1.6616,-1.6614,-1.6633,-1.6593,-1.6615,-1.667,-1.6646,-1.6694,-1.6698,-1.6709,-1.6712,-1.6715,-1.6724,-1.6737,-1.6737,-1.6781,-1.6781,0,0,-1.6613,-1.66,-1.663,-1.6636,-1.6629,-1.6644,-1.6647,-1.6697,-1.6699,-1.6713,-1.6716,-1.6725,-1.6737,-1.6738,-1.6781,-1.6781,0,0,0,-1.6603,-1.6597,-1.6615,-1.6633,-1.6644,-1.6645,-1.665,-1.6696,-1.6704,-1.6717,-1.6726,-1.6738,-1.6738,-1.678,-1.6781,-1.6773,0,0,0,-1.6601,-1.6591,-1.6614,-1.6606,-1.6643,-1.6671,-1.6648,-1.67,-1.6706,-1.6726,-1.6738,-1.6739,-1.678,-1.6781,-1.6773,-1.6771,0,0,0,-1.659,-1.659,-1.6597,-1.6605,-1.6629,-1.6671,-1.6681,-1.6702,-1.6711,-1.6737,-1.6739,-1.678,-1.6781,-1.6773,-1.6771,-1.6778,0,0,0,-1.6573,-1.6588,-1.6597,-1.6616,-1.6629,-1.6666,-1.6681,-1.6709,-1.673,-1.6738,-1.678,-1.6781,-1.6773,-1.6771,-1.6778,-1.6782,-1.6782,0,0,-1.6584,-1.6589,-1.6602,-1.6611,-1.6644,-1.6659,-1.669,-1.6721,-1.6734,-1.6764,-1.6765,-1.6773,-1.6771,-1.6778,-1.679,-1.679,0,0,0,-1.66,-1.6609,-1.6621,-1.6641,-1.6667,-1.6688,-1.6716,-1.6728,-1.6754,-1.6748,-1.6778,-1.6777,-1.6782,-1.6784,-1.6784,-1.6789,-1.6781,-1.6781,-1.6781,-1.6595,-1.6614,-1.6636,-1.6661,-1.6681,-1.671,-1.6727,-1.6747,-1.6759,-1.6766,-1.6774,-1.678,-1.6782,-1.6782,-1.6787,-1.6778,-1.6778,-1.6778,-1.6778,-1.6612,-1.6628,-1.6645,-1.6672,-1.6691,-1.6714,-1.6742,-1.675,-1.6772,-1.6774,-1.678,-1.678,-1.6782,-1.6787,-1.6777,-1.6778,-1.6778,-1.6778,-1.6778,-1.6611,-1.6622,-1.6637,-1.6669,-1.669,-1.6715,-1.6736,-1.6752,-1.6767,-1.6772,-1.6783,-1.6783,-1.6784,-1.6776,-1.6776,-1.6776,-1.6776,-1.6776,-1.6776,-1.6603,-1.6621,-1.6638,-1.6667,-1.6682,-1.6704,-1.6733,-1.6748,-1.6768,-1.6778,-1.6778,-1.6788,-1.6779,-1.6776,-1.6777,-1.6776,-1.6776,-1.6776,-1.6776,-1.6613,-1.6614,-1.664,-1.6656,-1.6691,-1.6711,-1.6732,-1.676,-1.6774,-1.6784,-1.6794,-1.6785,-1.679,-1.679,-1.6787,-1.679,-1.679,-1.679,-1.679,-1.6612,-1.6617,-1.6648,-1.6671,-1.6696,-1.6718,-1.6745,-1.6768,-1.6791,-1.68,-1.6802,-1.6801,-1.68,-1.6805,-1.6805,-1.6803,-1.681,-1.681,-1.681,-1.6619,-1.6627,-1.6648,-1.6673,-1.6702,-1.6725,-1.6751,-1.6776,-1.6802,-1.6811,-1.6808,-1.6807,-1.6805,-1.6803,-1.6812,-1.6811,-1.6808,0,0]}]]